TimeCDT,TemperatureF,Dew PointF,Humidity,Sea Level PressureIn,VisibilityMPH,Wind Direction,Wind SpeedMPH,Gust SpeedMPH,PrecipitationIn,Events,Conditions,WindDirDegrees,DateUTC
12:58 AM,75.0,72.0,90,30.01,9.0,Calm,Calm,-,N/A,,Mostly Cloudy,0,2013-08-03 05:58:00
1:58 AM,73.0,72.0,96,30.00,8.0,Calm,Calm,-,N/A,,Partly Cloudy,0,2013-08-03 06:58:00
2:58 AM,73.0,71.1,93,30.00,8.0,Calm,Calm,-,N/A,,Partly Cloudy,0,2013-08-03 07:58:00
3:58 AM,72.0,70.0,93,30.00,8.0,South,3.5,-,N/A,,Partly Cloudy,190,2013-08-03 08:58:00
4:58 AM,71.1,70.0,96,29.99,7.0,Calm,Calm,-,N/A,,Clear,0,2013-08-03 09:58:00
5:58 AM,71.1,69.1,93,30.01,7.0,Calm,Calm,-,N/A,,Clear,0,2013-08-03 10:58:00
6:58 AM,72.0,70.0,93,30.01,6.0,South,3.5,-,N/A,,Clear,190,2013-08-03 11:58:00
7:58 AM,75.9,72.0,87,30.02,7.0,South,4.6,-,N/A,,Clear,180,2013-08-03 12:58:00
8:58 AM,82.0,75.0,79,30.04,9.0,West,5.8,-,N/A,,Clear,260,2013-08-03 13:58:00
9:58 AM,86.0,75.0,70,30.06,10.0,WSW,6.9,-,N/A,,Clear,250,2013-08-03 14:58:00
10:58 AM,87.1,75.0,67,30.06,10.0,WNW,6.9,-,N/A,,Clear,290,2013-08-03 15:58:00
11:58 AM,88.0,75.0,65,30.06,10.0,Variable,5.8,-,N/A,,Mostly Cloudy,0,2013-08-03 16:58:00
12:58 PM,91.0,73.0,55,30.05,10.0,Variable,5.8,-,N/A,,Scattered Clouds,0,2013-08-03 17:58:00
1:58 PM,93.0,73.0,52,30.04,10.0,NW,6.9,-,N/A,,Partly Cloudy,320,2013-08-03 18:58:00
2:58 PM,93.0,73.9,54,30.02,10.0,WSW,6.9,-,N/A,,Mostly Cloudy,250,2013-08-03 19:58:00
3:58 PM,91.9,73.0,54,30.01,10.0,NNW,5.8,-,N/A,,Clear,330,2013-08-03 20:58:00
4:58 PM,91.0,75.0,59,30.00,10.0,North,6.9,-,N/A,,Clear,350,2013-08-03 21:58:00
5:58 PM,87.1,75.0,67,30.01,10.0,NNW,5.8,-,N/A,,Clear,340,2013-08-03 22:58:00
6:58 PM,84.0,73.9,72,30.02,10.0,ENE,3.5,-,N/A,,Clear,70,2013-08-03 23:58:00
7:58 PM,81.0,75.9,85,30.03,9.0,Calm,Calm,-,N/A,,Clear,0,2013-08-04 00:58:00
8:58 PM,80.1,75.9,87,30.04,9.0,South,4.6,-,N/A,,Clear,170,2013-08-04 01:58:00
9:58 PM,78.1,75.0,90,30.04,8.0,Calm,Calm,-,N/A,,Clear,0,2013-08-04 02:58:00
10:58 PM,77.0,75.0,94,30.05,7.0,South,3.5,-,N/A,,Clear,180,2013-08-04 03:58:00
11:58 PM,75.9,75.0,97,30.05,6.0,Calm,Calm,-,N/A,,Clear,0,2013-08-04 04:58:00